Location: Rockford
(42.2710°N, 89.0940°W)
Time: 05:03:43
(UTC-05:00)

SPOT 5 - Visible Passes

Search period start: 28 May 2015 00:00
Search period end: 07 June 2015 00:00
Orbit: 821 x 823 km, 98.5° (Epoch: 27 May)

Date Brightness Start Highest point End Pass type
(mag) Time Alt. Az. Time Alt. Az. Time Alt. Az.
28 May 3.2 21:41:52 11° SSE 21:47:02 82° WSW 21:52:27 10° NNW visible
29 May 3.2 21:21:38 10° SSE 21:26:56 68° ENE 21:32:18 10° N visible
29 May 5.5 23:04:26 10° SW 23:07:43 16° W 23:10:45 10° NW visible
30 May 3.6 21:01:51 10° SE 21:06:54 45° ENE 21:12:01 10° N visible
30 May 5.0 22:43:00 10° SSW 22:47:20 24° W 22:51:32 10° NW visible
31 May 4.4 22:22:06 10° SSW 22:27:01 36° W 22:31:54 10° NNW visible
01 Jun 3.7 22:01:37 10° S 22:06:47 54° W 22:12:03 10° NNW visible
02 Jun 3.2 21:41:16 10° SSE 21:46:37 81° WSW 21:52:02 10° NNW visible
03 Jun 3.2 21:21:14 10° SSE 21:26:32 68° ENE 21:31:53 10° N visible
03 Jun 5.5 23:04:01 10° SW 23:07:18 16° W 23:10:20 10° NW visible
04 Jun 3.6 21:01:26 10° SE 21:06:29 45° ENE 21:11:36 10° N visible
04 Jun 5.0 22:42:35 10° SSW 22:46:54 24° W 22:51:07 10° NW visible
05 Jun 4.4 22:21:41 10° SSW 22:26:36 36° W 22:31:29 10° NNW visible
06 Jun 3.7 22:01:08 10° S 22:06:22 54° W 22:11:38 10° NNW visible
